TimeCST,TemperatureF,Dew PointF,Humidity,Sea Level PressureIn,VisibilityMPH,Wind Direction,Wind SpeedMPH,Gust SpeedMPH,PrecipitationIn,Events,Conditions,WindDirDegrees,DateUTC
12:15 AM,50.0,32.0,50,29.59,10.0,WSW,31.1,42.6,N/A,,Clear,250,2012-12-15 06:15:00
12:35 AM,50.0,32.0,50,29.59,10.0,WSW,31.1,44.9,N/A,,Clear,250,2012-12-15 06:35:00
12:55 AM,50.0,32.0,50,29.60,10.0,WSW,35.7,46.0,N/A,,Clear,250,2012-12-15 06:55:00
1:15 AM,50.0,32.0,50,29.61,10.0,WSW,33.4,41.4,N/A,,Clear,240,2012-12-15 07:15:00
1:35 AM,48.2,32.0,54,29.61,10.0,WSW,29.9,40.3,N/A,,Clear,240,2012-12-15 07:35:00
1:55 AM,48.2,32.0,54,29.62,10.0,WSW,28.8,40.3,N/A,,Clear,250,2012-12-15 07:55:00
2:15 AM,48.2,32.0,54,29.63,10.0,WSW,25.3,36.8,N/A,,Clear,250,2012-12-15 08:15:00
2:35 AM,48.2,30.2,50,29.63,10.0,WSW,23.0,32.2,N/A,,Clear,250,2012-12-15 08:35:00
2:55 AM,48.2,30.2,50,29.65,10.0,WSW,18.4,27.6,N/A,,Clear,250,2012-12-15 08:55:00
3:15 AM,48.2,30.2,50,29.66,10.0,West,20.7,26.5,N/A,,Clear,260,2012-12-15 09:15:00
3:35 AM,50.0,30.2,47,29.66,10.0,West,21.9,27.6,N/A,,Clear,260,2012-12-15 09:35:00
3:55 AM,46.4,30.2,53,29.68,10.0,WSW,16.1,19.6,N/A,,Clear,250,2012-12-15 09:55:00
4:15 AM,46.4,30.2,53,29.69,10.0,WSW,13.8,21.9,N/A,,Clear,250,2012-12-15 10:15:00
4:35 AM,46.4,30.2,53,29.68,10.0,West,18.4,26.5,N/A,,Clear,260,2012-12-15 10:35:00
4:55 AM,48.2,28.4,46,29.68,10.0,West,17.3,23.0,N/A,,Clear,270,2012-12-15 10:55:00
5:15 AM,48.2,28.4,46,29.69,10.0,West,18.4,23.0,N/A,,Clear,280,2012-12-15 11:15:00
5:35 AM,46.4,28.4,50,29.70,10.0,West,12.7,24.2,N/A,,Clear,270,2012-12-15 11:35:00
5:55 AM,46.4,28.4,50,29.70,10.0,West,13.8,18.4,N/A,,Clear,270,2012-12-15 11:55:00
6:15 AM,44.6,30.2,57,29.71,10.0,WSW,8.1,-,N/A,,Clear,250,2012-12-15 12:15:00
6:35 AM,42.8,30.2,61,29.72,10.0,Calm,Calm,-,N/A,,Clear,0,2012-12-15 12:35:00
6:55 AM,42.8,30.2,61,29.73,10.0,SW,6.9,-,N/A,,Clear,230,2012-12-15 12:55:00
7:15 AM,42.8,30.2,61,29.73,10.0,Calm,Calm,-,N/A,,Clear,0,2012-12-15 13:15:00
7:35 AM,42.8,30.2,61,29.75,10.0,WSW,5.8,-,N/A,,Clear,240,2012-12-15 13:35:00
8:15 AM,42.8,30.2,61,29.75,10.0,SSW,5.8,-,N/A,,Clear,200,2012-12-15 14:15:00
8:35 AM,42.8,30.2,61,29.77,10.0,WSW,9.2,-,N/A,,Clear,240,2012-12-15 14:35:00
8:55 AM,44.6,32.0,61,29.78,10.0,SW,5.8,-,N/A,,Clear,230,2012-12-15 14:55:00
9:15 AM,46.4,30.2,53,29.77,10.0,West,6.9,-,N/A,,Clear,270,2012-12-15 15:15:00
9:35 AM,48.2,30.2,50,29.77,10.0,West,5.8,-,N/A,,Clear,270,2012-12-15 15:35:00
9:55 AM,50.0,30.2,47,29.77,10.0,West,9.2,-,N/A,,Clear,280,2012-12-15 15:55:00
10:15 AM,50.0,30.2,47,29.77,10.0,West,9.2,-,N/A,,Clear,280,2012-12-15 16:15:00
10:35 AM,51.8,30.2,44,29.78,10.0,West,9.2,-,N/A,,Clear,280,2012-12-15 16:35:00
10:55 AM,53.6,30.2,41,29.77,10.0,West,8.1,-,N/A,,Clear,280,2012-12-15 16:55:00
11:15 AM,53.6,30.2,41,29.77,10.0,WNW,8.1,-,N/A,,Clear,300,2012-12-15 17:15:00
11:35 AM,55.4,30.2,38,29.77,10.0,West,6.9,-,N/A,,Clear,270,2012-12-15 17:35:00
11:55 AM,55.4,30.2,38,29.77,10.0,West,8.1,-,N/A,,Clear,270,2012-12-15 17:55:00
12:15 PM,57.2,28.4,33,29.75,10.0,West,6.9,-,N/A,,Clear,260,2012-12-15 18:15:00
12:35 PM,59.0,30.2,34,29.74,10.0,WSW,6.9,-,N/A,,Clear,250,2012-12-15 18:35:00
12:55 PM,59.0,30.2,34,29.74,10.0,WSW,8.1,-,N/A,,Clear,250,2012-12-15 18:55:00
1:15 PM,60.8,30.2,31,29.73,10.0,West,10.4,-,N/A,,Clear,280,2012-12-15 19:15:00
1:35 PM,60.8,30.2,31,29.72,10.0,SW,10.4,-,N/A,,Clear,230,2012-12-15 19:35:00
1:55 PM,60.8,30.2,31,29.70,10.0,West,5.8,-,N/A,,Clear,280,2012-12-15 19:55:00
2:15 PM,60.8,30.2,31,29.68,10.0,West,6.9,-,N/A,,Clear,260,2012-12-15 20:15:00
2:35 PM,62.6,30.2,30,29.69,10.0,West,12.7,19.6,N/A,,Clear,260,2012-12-15 20:35:00
2:55 PM,62.6,28.4,27,29.69,10.0,SW,12.7,-,N/A,,Clear,220,2012-12-15 20:55:00
3:15 PM,62.6,26.6,26,29.69,10.0,WSW,15.0,19.6,N/A,,Clear,240,2012-12-15 21:15:00
3:35 PM,62.6,30.2,30,29.69,10.0,West,19.6,23.0,N/A,,Clear,260,2012-12-15 21:35:00
3:55 PM,60.8,30.2,31,29.69,10.0,WSW,11.5,-,N/A,,Clear,250,2012-12-15 21:55:00
4:15 PM,60.8,28.4,29,29.69,10.0,West,10.4,-,N/A,,Clear,270,2012-12-15 22:15:00
4:35 PM,60.8,28.4,29,29.69,10.0,West,10.4,-,N/A,,Clear,280,2012-12-15 22:35:00
4:55 PM,59.0,28.4,31,29.69,10.0,WSW,12.7,-,N/A,,Clear,240,2012-12-15 22:55:00
5:15 PM,55.4,28.4,36,29.70,10.0,West,11.5,-,N/A,,Clear,260,2012-12-15 23:15:00
5:35 PM,53.6,30.2,41,29.70,10.0,West,9.2,-,N/A,,Clear,260,2012-12-15 23:35:00
5:55 PM,51.8,30.2,44,29.70,10.0,West,6.9,-,N/A,,Clear,260,2012-12-15 23:55:00
6:15 PM,50.0,30.2,47,29.71,10.0,West,6.9,-,N/A,,Clear,260,2012-12-16 00:15:00
6:35 PM,53.6,30.2,41,29.70,10.0,WSW,9.2,-,N/A,,Clear,250,2012-12-16 00:35:00
6:55 PM,48.2,32.0,54,29.71,10.0,WSW,6.9,-,N/A,,Clear,250,2012-12-16 00:55:00
7:15 PM,44.6,32.0,61,29.72,10.0,SW,8.1,-,N/A,,Clear,230,2012-12-16 01:15:00
7:35 PM,46.4,32.0,57,29.73,10.0,SW,8.1,-,N/A,,Clear,220,2012-12-16 01:35:00
7:55 PM,46.4,32.0,57,29.73,10.0,SW,6.9,-,N/A,,Clear,230,2012-12-16 01:55:00
8:15 PM,46.4,32.0,57,29.73,10.0,WSW,5.8,-,N/A,,Clear,240,2012-12-16 02:15:00
8:35 PM,44.6,32.0,61,29.73,10.0,WSW,5.8,-,N/A,,Clear,250,2012-12-16 02:35:00
8:55 PM,44.6,32.0,61,29.73,10.0,SW,8.1,-,N/A,,Clear,230,2012-12-16 02:55:00
9:15 PM,46.4,32.0,57,29.72,10.0,WSW,6.9,-,N/A,,Clear,240,2012-12-16 03:15:00
9:35 PM,44.6,32.0,61,29.72,10.0,SSW,8.1,-,N/A,,Clear,200,2012-12-16 03:35:00
9:55 PM,44.6,32.0,61,29.72,10.0,SW,6.9,-,N/A,,Clear,220,2012-12-16 03:55:00
10:15 PM,44.6,30.2,57,29.72,10.0,WSW,6.9,-,N/A,,Clear,250,2012-12-16 04:15:00
10:35 PM,42.8,30.2,61,29.72,10.0,SW,6.9,-,N/A,,Clear,230,2012-12-16 04:35:00
10:55 PM,46.4,30.2,53,29.73,10.0,SW,10.4,-,N/A,,Clear,230,2012-12-16 04:55:00
11:15 PM,44.6,30.2,57,29.73,10.0,WSW,8.1,-,N/A,,Clear,240,2012-12-16 05:15:00
11:35 PM,44.6,30.2,57,29.73,10.0,SW,9.2,-,N/A,,Clear,230,2012-12-16 05:35:00
11:55 PM,44.6,30.2,57,29.73,10.0,WSW,6.9,-,N/A,,Clear,240,2012-12-16 05:55:00